sat.trackr.live / text

‹ back to catalog

STARLINK-35165

NORAD 65750 · 2025-216S

PAYLOAD ACTIVE UNKNOWN

§ Identity

Operator
Country
US
Launch date
2025-09-25
Launch site
AFETR
Launch vehicle
Mass (kg)
RCS (m²)

Purposes: comms

External: N2YO · Heavens-Above · Gunter

§ Orbital elements

Epoch: 2026-09-20T22:29:02.433408Z

Period
93.85 min
Inclination
53.1581°
Eccentricity
0.0000976
Mean motion
15.34434123 rev/d
Perigee alt
461.9 km
Apogee alt
463.3 km
Semi-major
6,840.7 km
B*
5.5920e-4
RAAN
143.3762°
Arg perigee
66.6332°
Mean anomaly
293.4773°
Rev number
5,644

§ Raw data

STARLINK-351651 65750U 25216S   26263.93683372  .00018585  00000+0  55920-3 0  99992 65750  53.1581 143.3762 0000976  66.6332 293.4773 15.34434123 56446

JSON: /api/v1/satellites/65750 · /tle

For live sub-satellite position, see the globe view (requires WebGL).

§ Visibility from observer

Set your observer location to see the next 7 days of passes ≥ 10°. The values pass through the URL so the page stays shareable.

No JS? Fill the form by hand. The geolocation button needs JavaScript.